Regional Weather Roundup
Issued by NWS Sioux Falls, SD

Home | Current Version | Previous Version | Text Only | Print | Product List | Glossary On
Versions: 1 2 3 4 5 6 7 8 9 10 11 12 13 14 15 16 17 18 19 20 21 22 23 24 25 26 27 28 29 30 31 32 33 34 35 36 37 38 39 40 41 42 43 44 45 46 47 48 49 50
000
ASUS43 KFSD 260202
RWRFSD

WEATHER ROUNDUP FOR SE SOUTH DAKOTA/SW MINNESOTA/NW IOWA
NATIONAL WEATHER SERVICE SIOUX FALLS SD
900 PM CDT TUE APR 25 2017

NOTE: "FAIR" INDICATES FEW OR NO CLOUDS BELOW 12,000 FEET WITH NO
SIGNIFICANT WEATHER AND OR OBSTRUCTIONS TO VISIBILITY.


SDZ038>040-050-052>070-260300-
SOUTHEAST SOUTH DAKOTA

CITY           SKY/WX    TMP DP  RH WIND       PRES   REMARKS
BROOKINGS      LGT RAIN  34  33  96 N18       29.67S WCI  23
CHAMBERLAIN    CLOUDY    37  32  84 NW16G23   29.79R
HURON          MIX PCPN  33  32  96 N17       29.77R WCI  22
MADISON        MIX PCPN  34  34 100 N22G28    29.68R WCI  22
MITCHELL       CLOUDY    35  32  88 N20G26    29.75S WCI  24
SIOUX FALLS    LGT RAIN  37  37 100 N20G25    29.66S
WINNER         CLOUDY    35  31  85 NW16      29.80R WCI  25
YANKTON        CLOUDY    36  32  87 NW20G26   29.68S
$$

MNZ071-072-080-081-089-090-097-098-260300-
SOUTHWEST MINNESOTA

CITY           SKY/WX    TMP DP  RH WIND       PRES   REMARKS
FAIRMONT       LGT RAIN  45  44  97 NW14      29.55S FOG
JACKSON        LGT SNOW  41  41 100 NW17      29.57S
LUVERNE        CLOUDY    37  34  87 N13G21    29.63F
MARSHALL       LGT RAIN  38  37  97 NW18G25   29.64R
MONTEVIDEO     LGT RAIN  41  41 100 N8        29.65R
PIPESTONE      LGT RAIN  37  34  87 N12G22    29.63S
REDWOOD FALLS  LGT RAIN  46  43  89 NW12      29.59R
TRACY          RAIN      39  39  98 NW20      29.62S
WINDOM         RAIN      41  39  93 NW18G25   29.58S
WORTHINGTON    LGT RAIN  39  37  92 NW21      29.60S FOG
$$

IAZ001>003-012>014-020>022-031-032-NEZ013-014-SDZ071-260300-
NORTHWEST IOWA

CITY           SKY/WX    TMP DP  RH WIND       PRES   REMARKS
CHEROKEE       DRIZZLE   41  41 100 N14G22    29.58S
DENISON        LGT RAIN  43  43 100 N14       29.58R
ESTHERVILLE    LGT RAIN  42  42 100 NW15      29.55R FOG
LE MARS        CLOUDY    41  39  93 N15       29.63R
ORANGE CITY    LGT RAIN  39  39 100 N18       29.61R
SHELDON        MIX PCPN  39  37  93 NW15G22   29.59S
SIOUX CITY     LGT RAIN  41  40  96 N17       29.61S
SPENCER        LGT RAIN  42  41  96 NW17G23   29.57S FOG
STORM LAKE     MIX PCPN  41  41 100 N14G22    29.56R
$$

ABBREVIATIONS USED IN REMARKS
   TC - TEMPERATURE IN CELSIUS
  WCI - WIND CHILL INDEX
   HX - HEAT INDEX
  VSB - VISIBILITY





USA.gov is the U.S. government's official web portal to all federal, state and local government web resources and services.